Погода в Итакуакесетубе

Бразилия     23°29′09″S   46°22′19″W
темп.,
°C
ветер,
м/с
пор.,
м/с
влажн.,
%
обл.,
%
осадки,
мм/ч
давл.,
гПа
погр.,
м
20 января, чт
чт2000:00+19всв119818 0.1 101826
03:00+18св129814 0.1 101645
06:00+17св129714 0.0 101757
09:00+24ссв12690 0.0 1017457
12:00+31в01451 0.0 10161705
15:00+27ююв346890 1.0 1014476
18:00+23в138828 3.7 101482
21:00+20вюв129639 4.1 101645
21 января, пт
пт2100:00+18вюв119713 0.0 101626
03:00+18св129824 0.0 101441
06:00+18в119821 0.0 101522
09:00+24юв12745 0.0 1016644
12:00+28ююв32490 0.0 10141721
15:00+28ю43483 0.0 10121856
18:00+24ююв45766 0.0 1012553
21:00+19вюв149734 0.0 1016163
22 января, сб
сб2200:00+18всв119753 0.0 101656
03:00+19в129397 0.0 1014148
06:00+19св159489 0.0 1015254
09:00+23ссв227686 0.0 1015684
12:00+28ююз125711 0.1 10141253
15:00+30ююв334923 0.1 10111706
18:00+23ююв36847 0.2 1013413
21:00+19юв129759 0.3 101599
23 января, вс
вс2300:00+19св259610 0.0 1015149
03:00+18св159951 0.0 1013165
06:00+18св249873 0.0 1014156
09:00+25с117037 0.0 1015505
12:00+30ююз115150 0.3 10131761
15:00+25юв237991 1.6 1013207
18:00+24юв358699 1.1 1012234
21:00+20вюв11965 1.4 101432
24 января, пн
пн2400:00+19св239812 0.0 101466
03:00+18св139928 0.0 101374
06:00+18св129925 0.0 101461
09:00+24св11755 0.0 1015497
12:00+31ююз114816 0.1 10131875
15:00+30ююв434878 0.1 10101750
18:00+24юв35755 0.1 1011420
21:00+19вюв129321 0.1 101349